Flag for Spain Weather past 2 weeks in Murcia, Spain

Now
59 °F

Clear.


Feels Like: 59 °F
Forecast: 52 / 78 °F
Wind: 5 mph from West

Location: Alicante / El Altet


UV Index: 5 (Moderate)

Visibility: 4 mi


Pressure: 29.62 "Hg

Humidity: 94%

Dew point: 57 °F

Location of MurciaLocation

Historic Weather in Murcia

°F

Murcia temperature yesterday

Maximum temperature yesterday: 84 °F (at 1:30 PM)
Minimum temperature yesterday: 57 °F (at 6:30 AM)
Average temperature yesterday: 68 °F

Past Weeks' High & Low Weather Summary

 TemperatureHumidityPressure
High84 °F (Apr 19, 1:30 PM)100% (Apr 7, 10:30 PM)30.21 "Hg (Apr 7, 10:30 PM)
Low50 °F (Apr 8, 5:30 AM)26% (Apr 15, 4:30 PM)29.56 "Hg (Apr 19, 8:00 PM)
Average65 °F65%30.02 "Hg
* Reported Apr 5 5:00 AM — Apr 20 5:00 AM, Murcia, Weather by CustomWeather, © 2014

Note: Actual official high and low records may vary slightly from our data, if they occured in-between our weather recording intervals... More about our weather records

Advertising

Historic Weather Conditions — Data for Previous 24 hours

 ConditionsComfort  
Time TempWeatherWind HumidityBarometerVisibility
5:00 AM
Apr 20
57 °FClear.3 mph94%29.62 "Hg10 mi
4:30 AM59 °FClear.2 mph88%29.62 "Hg10 mi
4:00 AM59 °FClear.2 mph88%29.62 "Hg10 mi
3:30 AM61 °FClear.2 mph88%29.62 "Hg10 mi
3:00 AM59 °FClear.1 mph88%29.62 "Hg10 mi
2:30 AM61 °FClear.1 mph88%29.62 "Hg10 mi
2:00 AM63 °FClear.No wind83%29.62 "Hg10 mi
1:30 AM64 °FPassing clouds.3 mph78%29.62 "HgN/A
1:00 AM64 °FPassing clouds.5 mph83%29.62 "HgN/A
12:30 AM64 °FPassing clouds.8 mph83%29.62 "HgN/A
12:00 AM64 °FClear.10 mph83%29.59 "Hg10 mi
11:30 PM
Apr 19
64 °FPassing clouds.7 mph83%29.59 "HgN/A
11:00 PM64 °FClear.2 mph83%29.56 "Hg10 mi
10:30 PM66 °FPassing clouds.5 mph78%29.56 "HgN/A
10:00 PM66 °FClear.5 mph73%29.59 "Hg10 mi
9:30 PM66 °FSunny.2 mph73%29.56 "Hg10 mi
9:00 PM66 °FPassing clouds.3 mph73%29.56 "HgN/A
8:30 PM66 °FPassing clouds.5 mph78%29.56 "HgN/A
8:00 PM68 °FScattered clouds.6 mph73%29.56 "HgN/A
7:30 PM70 °FScattered clouds.6 mph69%29.59 "HgN/A
7:00 PM70 °FScattered clouds.2 mph69%29.59 "Hg10 mi
6:30 PM68 °FPassing clouds.9 mph73%29.62 "HgN/A
6:00 PM72 °FPassing clouds.6 mph65%29.59 "HgN/A
5:30 PM72 °FScattered clouds.7 mph69%29.62 "HgN/A
5:00 PM72 °FPassing clouds.10 mph65%29.62 "HgN/A
4:30 PM75 °FPassing clouds.9 mph57%29.59 "HgN/A
4:00 PM79 °FPassing clouds.9 mph51%29.62 "HgN/A
3:30 PM79 °FPassing clouds.10 mph48%29.62 "HgN/A
3:00 PM81 °FPassing clouds.12 mph45%29.65 "HgN/A
2:30 PM84 °FPassing clouds.13 mph33%29.65 "HgN/A
2:00 PM82 °FPassing clouds.12 mph35%29.65 "HgN/A
1:30 PM84 °FPassing clouds.9 mph35%29.68 "HgN/A
1:00 PM82 °FPassing clouds.9 mph40%29.68 "HgN/A
12:30 PM81 °FPassing clouds.8 mph42%29.68 "HgN/A
12:00 PM81 °FPassing clouds.9 mph42%29.68 "HgN/A
11:30 AM77 °FPassing clouds.8 mph51%29.71 "HgN/A
11:00 AM77 °FPassing clouds.6 mph47%29.68 "HgN/A
10:30 AM77 °FSunny.5 mph44%29.68 "Hg10 mi
10:00 AM73 °FPassing clouds.6 mph50%29.71 "HgN/A
9:30 AM70 °FPassing clouds.3 mph57%29.71 "HgN/A
9:00 AM64 °FSunny.No wind68%29.71 "Hg10 mi
8:30 AM61 °FPassing clouds.3 mph72%29.74 "HgN/A
8:00 AM59 °FClear.No wind77%29.74 "Hg10 mi
7:30 AM57 °FClear.No wind82%29.71 "Hg10 mi
7:00 AM57 °FClear.No wind77%29.71 "Hg10 mi
6:30 AM57 °FClear.No wind77%29.71 "Hg10 mi
6:00 AM59 °FClear.No wind77%29.71 "Hg10 mi
Weather by CustomWeather, © 2014

See weather overview